Location: Asheville, NC
(35.6000°N, 82.5500°W)
Time: 18:26:15
(UTC-04:00)

JUGNU - Pass Details

Date: 03 January 2018
Orbit: 837 x 864 km, 20.0° (Epoch: 20 July)

Event Time Altitude Azimuth Distance (km) Brightness Sun altitude
Rises 18:09:54 0° 220° (SW) 3,416 ? -8.2°
Reaches altitude 10° 18:14:05 10° 193° (SSW) 2,482 ? -9.0°
Maximum altitude 18:16:33 13° 168° (SSE) 2,294 ? -9.5°
Drops below altitude 10° 18:19:02 10° 143° (SE) 2,482 ? -10.0°
Enters shadow 18:23:00 - 117° (ESE) 3,363 ? -10.7°
